カタログに戻る

IRIDIUM 176

運用中通信PO
NORAD 43923·PAYLOAD·🇺🇸 United States

打ち上げ Jan 11, 2019 から Vandenberg Space Force Base

Loading…

次のパス (今後24時間)

TLE

最新Source: CelesTrak SupGP

元期: Sep 14, 2026, 20:41 UTC

1 43923C 19002B   26257.86215278 -.00001021  00000+0 -16212-3 0  2571
2 43923  86.6095 316.0647 0002475  94.6705 190.2206 14.72246147    12

AllMySatでIRIDIUM 176をリアルタイム追跡

Download on the App Store